This is the latest recevied weather packets stored in our database for station/object Kirchdorf. If no packets are shown the sender has not sent any weather packets the latest 10 day(s).
| Time | Temp. | Humidity | Pressure | Rain* | Wind** | Luminosity | Snow |
|---|---|---|---|---|---|---|---|
| 1787967131 | 13.33° C | 94% | 1017.3 hPa | 0 mm | - | - | - |
| 1787965329 | 13.89° C | 93% | 1017.4 hPa | 0 mm | - | - | - |
| 1787963531 | 13.89° C | 93% | 1017.4 hPa | 0 mm | - | - | - |
| 1787961731 | 14.44° C | 93% | 1017.4 hPa | 0 mm | - | - | - |
| 1787959931 | 14.44° C | 92% | 1017.4 hPa | 0 mm | - | - | - |
| 1787958131 | 14.44° C | 92% | 1017.3 hPa | 0 mm | - | - | - |
| 1787956331 | 15° C | 92% | 1017.3 hPa | 0 mm | - | - | - |
| 1787952731 | 15.56° C | 92% | 1016.8 hPa | 5.59 mm | - | - | - |
| 1787950930 | 16.11° C | 91% | 1016.8 hPa | 5.59 mm | - | - | - |
| 1787949131 | 16.67° C | 90% | 1016.2 hPa | 5.33 mm | - | - | - |
| 1787947330 | 16.67° C | 90% | 1016.4 hPa | 5.33 mm | - | - | - |
| 1787945531 | 17.78° C | 92% | 1016.3 hPa | 5.08 mm | - | - | - |
| 1787943732 | 17.22° C | 91% | 1015.1 hPa | 5.08 mm | - | - | - |
| 1787941930 | 17.78° C | 91% | 1015.2 hPa | 5.08 mm | - | - | - |
| 1787940131 | 17.78° C | 90% | 1015 hPa | 5.08 mm | - | - | - |
| 1787938330 | 18.33° C | 87% | 1014.5 hPa | 4.83 mm | - | - | - |
| 1787936532 | 18.33° C | 86% | 1014.7 hPa | 4.83 mm | - | - | - |
| 1787934731 | 19.44° C | 81% | 1014.1 hPa | 4.32 mm | - | - | - |
| 1787932931 | 19.44° C | 80% | 1013.9 hPa | 4.32 mm | - | - | - |
| 1787931130 | 20° C | 79% | 1013.6 hPa | 4.32 mm | - | - | - |
| 1787929330 | 20° C | 83% | 1013.9 hPa | 4.32 mm | - | - | - |
| 1787927530 | 19.44° C | 91% | 1013.7 hPa | 4.32 mm | - | - | - |
| 1787925730 | 19.44° C | 88% | 1014.1 hPa | 4.32 mm | - | - | - |
| 1787923930 | 20° C | 89% | 1014.1 hPa | 4.32 mm | - | - | - |
| 1787922130 | 19.44° C | 93% | 1013.9 hPa | 4.32 mm | - | - | - |
* Rain since midnight (hover to see other rain measurements)
** Current wind speed in m/s (hover to see current wind gust speed)